#timestamp,LO_Frequency,Hit,StdDev 
1540864815.3,286046996.1,N
1540864835.1,286046994.7,N
1540864855.9,286046992.4,N
1540864875.7,286046993.0,N
1540864895.6,286046991.4,N
1540864915.4,286046988.9,Y
1540864935.2,286046992.5,P
1540864955.1,286046994.5,N
1540864956.0,286046994.5,P
1540864975.8,286046993.4,Y
1540864995.7,286047000.7,P
1540865015.5,286047002.8,N
1540865035.3,286047001.1,N
1540865055.2,286046998.1,N
1540865075.9,286046999.5,N
1540865095.7,286046998.2,N
1540865115.6,286047000.6,N
1540865135.4,286047002.3,N
1540865155.3,286047002.4,N
1540865175.1,286047001.7,N
1540865176.0,286047001.7,N
1540865195.8,286046999.8,N
1540865215.7,286047000.8,N
1540865235.5,286047001.1,N
1540865255.3,286047000.8,N
1540865275.2,286046999.4,N
1540865295.0,286046999.2,N
1540865295.9,286046999.2,N
1540865315.8,286046998.8,N
1540865335.6,286046998.6,N
1540865355.4,286047000.8,N
1540865375.3,286046999.8,N
1540865395.1,286046998.7,N
1540865415.8,286046997.1,N
1540865435.7,286046997.9,N
1540865455.5,286046994.9,N
1540865475.4,286046993.5,Y
1540865495.2,286046995.2,P
1540865515.0,286046998.0,N
1540865515.9,286046998.0,N
1540865535.8,286046993.3,Y
1540865555.6,286047000.6,P
1540865575.4,286047000.1,N
1540865595.3,286047002.2,N
1540865615.1,286047000.5,N
1540865635.9,286046996.7,N
1540865655.7,286046999.5,N
1540865675.5,286046999.4,N
1540865695.4,286046998.0,N
1540865715.2,286046996.1,N
1540865735.0,286046993.9,Y
1540865736.0,286046993.9,P
1540865755.8,286046996.1,N
1540865775.6,286046998.0,N
1540865795.5,286046996.0,N
1540865815.3,286046994.5,Y
1540865835.1,286046993.5,P
1540865855.9,286046993.4,P
1540865875.7,286046994.8,P
1540865895.6,286046995.2,Y
1540865915.4,286047000.3,P
1540865935.2,286046999.9,N
1540865955.1,286047003.5,N
1540865956.0,286047003.5,N
1540865975.8,286047003.2,N
1540865995.6,286047004.0,N
1540866015.5,286047005.2,N
1540866035.3,286047007.6,N
1540866055.2,286047006.2,N
1540866075.9,286047010.4,N
1540866095.7,286047010.4,N
1540866115.6,286047009.8,N
1540866135.4,286047007.7,N
1540866155.2,286047009.5,N
1540866175.1,286047012.2,N
1540866176.0,286047012.2,N
1540866195.8,286047010.1,N
1540866215.7,286047009.7,N
1540866235.5,286047012.4,N
1540866255.3,286047012.3,N
1540866275.2,286047012.1,N
1540866295.9,286047009.3,N
1540866315.7,286047011.4,N
1540866335.6,286047011.0,N
1540866355.4,286047012.6,N
1540866375.3,286047012.7,N
1540866395.1,286047014.7,Y
1540866396.0,286047014.7,P
1540866415.8,286047010.6,P
1540866435.7,286047010.8,P
1540866455.5,286047010.4,Y
1540866475.3,286046998.4,P
1540866495.2,286046998.3,N
1540866515.0,286046999.4,N
1540866515.9,286046999.4,N
1540866535.8,286046997.2,N
1540866555.6,286046996.8,N
1540866575.4,286046999.2,N
1540866595.3,286046996.5,N
1540866615.1,286046995.7,N
1540866635.8,286046999.1,N
1540866655.7,286046998.6,N
1540866675.5,286046998.7,N
1540866695.4,286046998.2,N
1540866715.2,286046998.4,N
1540866735.0,286046997.4,N
1540866735.9,286046997.4,N
1540866755.8,286046998.7,N
1540866775.6,286046998.6,N
1540866795.4,286046999.6,N
1540866815.3,286046998.9,N
1540866835.1,286046998.7,N
1540866855.9,286047002.8,N
1540866875.7,286047002.7,N
1540866895.5,286047001.5,N
1540866915.4,286047004.2,N
1540866935.2,286047003.3,N
1540866955.0,286047005.3,N
1540866955.9,286047005.3,N
1540866975.8,286047007.2,N
1540866995.6,286047004.4,N
1540867015.5,286047002.9,N
1540867035.3,286047006.4,N
1540867055.1,286047005.2,N
1540867075.9,286047004.9,N
1540867095.7,286047005.4,N
1540867115.5,286047003.1,N
1540867135.4,286047003.4,N
1540867155.2,286047003.2,N
1540867175.1,286047004.1,N
1540867176.0,286047004.1,N
1540867195.8,286047007.6,N
1540867215.6,286047006.3,N
1540867235.5,286047007.5,N
1540867255.3,286047006.8,N
1540867275.1,286047006.8,N
1540867295.9,286047010.7,Y
1540867315.7,286047004.5,P
1540867335.6,286047005.1,P
1540867355.4,286047005.3,P
1540867375.2,286047006.3,Y
1540867395.1,286047002.8,P
1540867396.0,286047002.8,P
1540867415.8,286047001.6,N
1540867435.7,286047000.2,N
1540867455.5,286046999.8,N
1540867475.3,286047002.5,N
1540867495.2,286047001.9,N
1540867515.0,286047000.2,N
1540867515.9,286047000.2,N
1540867535.7,286047002.3,N
1540867555.6,286047001.6,N
1540867575.4,286047001.7,N
1540867595.3,286047002.7,N
1540867615.1,286047002.7,N
1540867616.0,286047002.7,N
1540867635.8,286047004.8,Y
1540867655.7,286047001.4,P
1540867675.5,286047007.0,P
1540867695.3,286047005.0,N
1540867715.2,286047005.0,N
1540867735.0,286047007.3,Y
1540867735.9,286047007.3,P
1540867755.8,286047003.6,N
1540867775.6,286047003.4,N
1540867795.4,286047003.4,N
1540867815.3,286047004.0,N
1540867835.1,286047002.6,N
1540867855.9,286047004.2,N
1540867875.7,286047002.3,N
1540867895.5,286047000.3,N
1540867915.4,286046999.8,N
1540867935.2,286047001.4,N
1540867955.0,286047003.3,N
1540867955.9,286047003.3,N
1540867975.8,286047004.2,N
1540867995.6,286047003.8,N
1540868015.5,286047003.4,N
1540868035.3,286047005.8,Y
1540868055.1,286047001.2,P
1540868075.9,286046998.2,N
1540868095.7,286047000.3,N
1540868115.5,286046998.3,N
1540868135.4,286046998.1,N
1540868155.2,286047002.5,N
1540868175.1,286047002.0,N
1540868176.0,286047002.0,N
1540868195.8,286047002.7,N
1540868215.6,286047004.0,N
1540868235.5,286047001.8,N
1540868255.3,286047001.9,N
1540868275.1,286047001.9,N
1540868295.9,286047002.7,N
1540868315.7,286047000.1,N
1540868335.6,286046999.0,N
1540868355.4,286047000.8,N
1540868375.2,286046998.9,N
1540868395.1,286047000.1,N
1540868396.0,286047000.1,N
